Regional Weather Roundup
Issued by NWS Albany, NY

Home | Current Version | Previous Version | Graphics & Text | Print | Product List | Glossary Off
Versions: 1 2 3 4 5 6 7 8 9 10 11 12 13 14 15 16 17 18 19 20 21 22 23 24 25 26 27 28 29 30 31 32 33 34 35 36 37 38 39 40 41 42 43 44 45 46 47 48 49 50

000
ASUS41 KALY 271710
RWRALY

NEW YORK STATE HOURLY WEATHER ROUNDUP
NATIONAL WEATHER SERVICE ALBANY NY
100 PM EDT WED AUG 27 2014

NOTE: "FAIR" INDICATES FEW OR NO CLOUDS BELOW 12,000 FEET WITH NO
SIGNIFICANT WEATHER AND/OR NO OBSTRUCTIONS TO VISIBILITY.

NYZ032-033-038>043-046>054-057>066-NYZ062>081-271800-
EAST


CITY           SKY/WX    TMP DP  RH WIND       PRES   REMARKS
ALBANY         CLOUDY    81  67  62 S5        29.95F
GLENS FALLS    PTSUNNY   80  68  66 S12       29.92F
POUGHKEEPSIE   SUNNY     85  65  51 VRB5      29.94F
NEWBURGH       SUNNY     84  70  61 SW9       29.98F
MONTGOMERY     SUNNY     88  67  49 S8        29.95F HX  91
WHITE PLAINS   SUNNY     86  64  47 SW6       29.97F
ISLIP          SUNNY     82  65  56 SW10      29.97F
NEW YORK CITY  SUNNY     87  59  38 SW8       29.96F
CENTRAL PARK   SUNNY     87  61  41 VRB6      29.99F
$$

NYZ005>009-017-018-044>046-055-056-271800-
CENTRAL


CITY           SKY/WX    TMP DP  RH WIND       PRES   REMARKS
FULTON         CLOUDY    74  62  66 W12       30.01S
SYRACUSE       CLOUDY    77  64  65 NW9       29.99F
ROME           CLOUDY    75  68  78 W10       29.99F
ELMIRA         CLOUDY    79  69  71 CALM      30.01F
BINGHAMTON     CLOUDY    73  66  78 W8        30.05S
MONTICELLO     SUNNY     79  68  69 NW6       30.03F
$$

NYZ026>034-041>043-271800-
NORTH


CITY           SKY/WX    TMP DP  RH WIND       PRES   REMARKS
WATERTOWN      SUNNY     74  60  61 SW9       29.98F
FORT DRUM      NOT AVBL
MASSENA        MOSUNNY   75  62  64 SW5       29.95F
SARANAC LAKE   PTSUNNY   75  59  57 W7G18     29.97F
PLATTSBURGH    PTSUNNY   79  63  57 E7        29.90F
$$

NYZ001>004-010>016-019>021-271800-
WEST


CITY           SKY/WX    TMP DP  RH WIND       PRES   REMARKS
NIAGARA FALLS  MOSUNNY   72  56  57 NW8       30.05S
BUFFALO        MOSUNNY   75  58  55 NW8       30.05S
DUNKIRK        CLOUDY    73  60  63 W18       30.08R
JAMESTOWN      MOSUNNY   73  64  73 NW10      30.09S
WELLSVILLE     MOSUNNY   71  65  81 W7        30.08F
ROCHESTER      PTSUNNY   76  62  62 VRB6      30.03F
PENN YAN       CLOUDY    74  65  73 VRB3      30.03F
$$

             KEY
       WCI = WIND CHILL INDEX
       VSB = VISIBILITY
       HX  = HEAT INDEX
$$


USA.gov is the U.S. government's official web portal to all federal, state and local government web resources and services.